Location: Calvatone
(45.1167°N, 10.4333°E)
Time: 15:02:27
(UTC+00:00)

Timation 2 Rocket - Pass Details

Date: 28 January 2023
Orbit: 905 x 1076 km, 70.0° (Epoch: 30 March)

Event Time Altitude Azimuth Distance (km) Brightness Sun altitude
Rises 17:04:34 0° 336° (NNW) 3,582 7.0 -8.2°
Reaches altitude 10° 17:07:15 10° 345° (NNW) 2,654 6.3 -8.7°
Maximum altitude 17:12:58 39° 53° (NE) 1,418 4.4 -9.6°
Drops below altitude 10° 17:18:52 10° 121° (ESE) 2,746 6.0 -10.6°
Sets 17:21:40 0° 129° (SE) 3,720 6.7 -11.1°
